Weather in Polesskoe

Ukraine / Rovno District     50°50′39″N   26°48′04″E
temp.,
°C
wind,
m/s
gust,
m/s
humid.,
%
clouds,
%
prec.,
mm/h
press.,
hPa
HPBL,
m
8 may, sat
sat800:00+8w3995100 0.0 1007214
03:00+7nw4994100 0.1 1009462
06:00+5wnw41094100 1.1 1010648
09:00+6nw61089100 1.3 1012851
12:00+4wnw6990100 0.4 1015979
15:00+7nw61072100 0.6 10161324
18:00+9wnw59678 0.6 10171522
21:00+4wnw34865 0.8 101972
9 may, sun
sun900:00+2w23920 0.0 102159
03:00+2w35934 0.0 102295
06:00+1w37964 0.0 1024136
09:00+7wnw46723 0.0 1025532
12:00+12wnw34485 0.0 10241496
15:00+14w234061 0.0 10242085
18:00+14ssw134312 0.0 10241770
21:00+9se34645 0.0 102548
10 may, mon
mon1000:00+7sse410665 0.0 1026166
03:00+6sse38755 0.0 1026137
06:00+5sse37795 0.0 1026114
09:00+12sse585937 0.0 1026380
12:00+16sse684638 0.0 10261330
15:00+18se68456 0.0 10251494
18:00+17se57549 0.0 10241276
21:00+12se4127268 0.0 1024298
11 may, tue
tue1100:00+9se513775 0.0 1025296
03:00+8se513786 0.0 1025285
06:00+7se512795 0.0 1025279
09:00+12se596113 0.0 1024448
12:00+16se67420 0.0 10231016
15:00+18ese67410 0.0 10211266
18:00+18ese57500 0.0 10201055
21:00+12e410750 0.0 1019199
12 may, wed
wed1200:00+10ese312870 0.0 1019270
03:00+10ese411973 0.0 1018344
06:00+8ese4109819 0.0 1018271
09:00+12ese47675 0.0 1017639
12:00+13e6862100 0.0 10151010
15:00+13ene4766100 0.0 10141061
18:00+13e576998 0.4 1013962
21:00+9e39895 0.9 1012249